RH
77 80 78 76 67 56 46 43 41 44 43 47 50 51 48 47 49 49 49 49 50 50 50 51 49 47 49 49 50 53 52 58 64 54 48 51 55 58 67 78 71 80 80 66
82 84 83 80 77 63 52 46 46 46 45 48 54 53 52 51 51 51 52 53 56 55 56 55 53 52 54 55 57 57 58 57 65 52 54 56 57 59 61 69 70 70 83 60
84 87 86 85 83 68 58 52 49 47 49 51 52 54 54 54 53 51 53 55 57 58 59 57 57 58 58 58 60 62 62 66 64 64 57 63 65 62 62 68 75 66 65 60
89 87 88 87 87 76 67 57 55 53 48 54 54 53 55 59 58 59 57 61 62 62 63 63 60 62 60 56 57 60 67 71 69 68 66 63 58 57 57 60 58 69 47 62
92 92 90 90 88 83 71 64 59 58 56 55 54 56 57 61 60 60 59 62 64 67 69 67 66 61 61 61 63 62 64 67 66 62 53 54 52 44 45 50 57 64 63 67
97 94 93 90 93 90 77 73 68 59 57 61 58 56 57 62 64 63 62 61 60 61 58 54 53 54 56 56 58 59 56 55 58 56 55 48 40 42 47 50 59 66 71 73
97 96 95 92 95 94 83 75 70 65 60 63 62 58 62 63 65 62 60 58 58 57 57 56 54 54 53 50 48 49 50 54 56 61 53 57 37 47 54 64 74 76 73 72
99 96 99 95 94 94 86 77 73 71 67 67 63 60 62 63 65 63 63 59 55 57 57 56 56 52 49 51 53 52 50 51 56 62 65 49 45 57 62 69 78 83 78 74
99 98 99 98 95 88 89 81 80 78 74 67 65 64 68 71 71 68 65 62 60 59 56 58 62 54 48 44 50 49 49 53 55 64 67 65 53 60 64 67 77 78 79 78
99 98 98 98 97 95 92 88 86 83 79 75 72 72 74 75 78 70 70 67 60 59 59 58 59 56 54 53 57 60 58 59 59 63 67 59 56 48 52 70 72 71 72 73
99 99 98 99 97 98 96 92 89 85 84 84 78 78 80 79 74 70 68 61 62 62 63 60 58 64 61 57 54 49 55 61 63 65 68 65 53 51 55 53 50 56 64 61
91 95 99 99 99 96 96 93 91 91 87 86 84 81 82 78 79 73 67 60 57 59 61 61 59 56 54 50 48 38 37 39 47 55 51 47 40 37 41 42 45 45 51 52
81 85 86 97 98 98 95 98 98 94 92 89 85 78 71 68 64 61 58 58 54 54 54 54 53 51 48 47 44 36 31 30 33 32 28 34 39 44 49 53 55 56 55 52
53 60 71 82 93 96 96 97 97 97 86 80 77 75 68 63 55 54 56 55 55 55 51 48 50 48 45 46 37 38 34 36 42 46 48 49 46 53 58 61 66 67 66 64
52 62 66 72 81 79 96 96 98 95 80 74 70 66 55 55 56 53 51 52 52 51 51 54 50 44 40 41 43 43 43 53 59 61 61 65 60 64 68 68 70 68 64 59
52 57 58 70 86 83 87 96 89 79 75 64 69 65 63 61 58 56 52 51 49 50 54 49 44 40 37 45 49 51 57 61 66 65 66 68 64 62 65 64 64 62 63 64
64 74 72 71 72 74 67 61 71 69 59 58 59 60 61 63 64 61 55 50 48 49 49 44 42 46 52 59 61 61 61 62 67 71 70 65 67 63 64 67 66 65 66 68
62 67 76 83 84 77 79 71 58 57 64 64 67 65 64 59 57 58 59 58 58 59 55 55 56 59 63 65 64 64 64 65 71 76 76 71 67 67 67 68 69 69 72 73
65 67 77 83 78 72 71 68 67 68 68 66 64 63 63 59 61 61 65 63 62 58 59 60 62 65 66 66 68 67 68 72 71 70 70 70 72 70 74 77 78 78 77 74
73 74 65 69 69 65 69 67 66 63 61 55 60 62 66 64 62 63 59 60 60 61 58 63 64 65 67 67 68 71 75 76 72 66 66 71 72 78 85 89 89 85 82 76
72 72 81 86 85 76 66 68 66 68 68 66 68 70 66 62 60 57 54 57 57 60 61 65 68 66 63 65 69 76 77 75 73 74 78 79 81 82 85 85 84 82 84 86
78 78 81 82 77 75 75 74 73 72 71 76 75 74 65 60 56 54 54 53 54 59 65 70 69 64 65 70 74 76 76 74 76 80 82 83 86 90 89 85 84 86 89 90
78 75 73 78 80 78 73 72 71 74 83 80 71 67 61 56 46 47 49 52 57 59 67 69 65 66 72 75 78 77 76 77 81 86 88 88 91 94 93 92 92 93 96 97
78 79 84 80 77 74 73 70 71 74 74 69 63 58 46 44 44 49 53 55 59 66 68 67 68 71 73 74 73 75 79 83 86 90 90 90 93 95 97 96 94 95 97 97
76 71 75 78 72 77 77 79 76 72 67 63 57 48 45 49 51 53 57 62 66 68 67 70 73 75 73 72 73 75 82 87 91 93 94 94 95 96 96 96 98 97 97 97
66 65 70 73 74 75 78 74 70 65 57 47 43 46 48 49 54 60 62 66 67 69 73 75 75 74 74 71 71 72 86 93 94 96 96 96 95 95 94 94 95 97 97 97
69 76 74 72 70 73 73 67 55 45 44 43 43 46 48 55 61 63 66 66 67 71 72 70 69 70 69 70 73 84 93 92 91 93 97 97 97 98 95 94 96 97 97 97